Regional Weather Roundup
Issued by NWS

Home | Current Version | Previous Version | Text Only | Print | Product List | Glossary Off
Versions: 1 2 3 4 5 6 7 8 9 10 11 12 13 14 15 16 17 18 19 20 21 22 23 24 25 26 27 28 29 30 31 32 33 34 35 36 37 38 39 40 41 42 43 44 45 46 47 48 49 50

878
ASUS43 KLOT 240503
RWRIL

ILLINOIS REGIONAL WEATHER ROUNDUP
NATIONAL WEATHER SERVICE CHICAGO/ROMEOVILLE IL
1200 AM CDT TUE APR 24 2018

NOTE: "FAIR" INDICATES FEW OR NO CLOUDS BELOW 12,000 FEET WITH NO
SIGNIFICANT WEATHER AND/OR OBSTRUCTIONS TO VISIBILITY.

* THESE STATIONS ARE NOT UNDER NWS QUALITY CONTROL. THEY ALSO MAY NOT
  REPORT WEATHER SUCH AS PRECIPITATION OR FOG.

ILZ001-002-007-009-015-016-024-240600-
NORTHWEST ILLINOIS

CITY           SKY/WX    TMP DP  RH WIND       PRES   REMARKS
MOLINE         FAIR      53  37  54 E6        30.06F
STERLING*      FAIR      53  33  46 E9        30.09S
SAVANNA*       FAIR      49  33  55 E5        30.09S
$$

ILZ003-004-008-010-011-017-018-240600-
NORTH CENTRAL ILLINOIS

CITY           SKY/WX    TMP DP  RH WIND       PRES   REMARKS
ROCKFORD       CLOUDY    52  27  38 N7        30.12R
FREEPORT*      FAIR      46  32  58 E3        30.12S
ROCHELLE*      MOCLDY    52  32  46 NE6       30.09F
DE KALB*       CLOUDY    52  29  41 NE8       30.10F
PERU*          CLOUDY    53  38  56 E8        30.08S
$$

ILZ005-006-012>014-019>023-240600-
NORTHEAST ILLINOIS

CITY           SKY/WX    TMP DP  RH WIND       PRES   REMARKS
CHICAGO-OHARE  CLOUDY    49  31  49 N5        30.09F
CHICAGO-MIDWAY CLOUDY    52  35  52 CALM      30.10S
AURORA         CLOUDY    52  29  41 NE7       30.08F
LANSING*       DRIZZLE   45  43  91 CALM      30.09F
JOLIET*        CLOUDY    51  39  61 NE6       30.09S
WAUKEGAN       CLOUDY    45  31  58 NW5       30.09F
DUPAGE AIRPORT CLOUDY    50  29  44 NE6       30.08F
KANKAKEE*      CLOUDY    48  47  97 NE7       30.08S FOG
WHEELING       CLOUDY    49  31  49 CALM      30.11F
MORRIS*        CLOUDY    50  38  65 CALM      30.07S
ROMEOVILLE*    DRIZZLE   47  40  78 E8        30.09S
NORTHERLY ISL    N/A     47  32  56 N3          N/A
$$

LMZ740>746-240600-
SOUTHERN LAKE MICHIGAN

STATION/POSITION SKY/WX   TEMP    WIND        PRES    VSBY  WAVE
                          AIR SEA DIR/SP/G                  HT/PER
                          (F)     (DEG/KT/KT) (MB)    (MI)  (FT/S)
HARRISON CRIB              43     340/  7/  7   N/A
BURNHAM HARBOR             47     340/  3/  6   N/A
CALUMET HARBOR             45      80/  1/  6 1018.7S
BURNS HARBOR               42      CALM  /  3 1019.6F
MICHIGAN CITY              45      20/  5/  5   N/A
ST. JOSEPH                 45 42   90/  2/  2 1020.0F         1/ 4
$$

ILZ025>027-034>036-040-047-049-050-058-095>099-240600-
WEST-CENTRAL ILLINOIS

CITY           SKY/WX    TMP DP  RH WIND       PRES   REMARKS
QUINCY         CLOUDY    57  52  83 E9        30.03S
GALESBURG*     FAIR      59  55  85 E5        30.07R
MACOMB*        CLOUDY    53  51  92 NE7       30.07R
JACKSONVILLE*  CLOUDY    54  53  96 NE5       30.02S FOG
PITTSFIELD*    CLOUDY    56  55  95 NE5       30.03S
$$

ILZ028>032-037-038-041>044-048-051>054-059>061-240600-
CENTRAL ILLINOIS

CITY           SKY/WX    TMP DP  RH WIND       PRES   REMARKS
PONTIAC        CLOUDY    49  48  99 NE12      30.06S FOG
BLOOMINGTON    CLOUDY    51  51 100 NE13      30.04S FOG
DECATUR        LGT RAIN  54  54 100 NE12      30.00F FOG
PEORIA         CLOUDY    55  53  93 NE9       30.05S
LACON*         CLOUDY    52  43  71 NE7       30.06S
LINCOLN*       RAIN      55  55 100 NE6       30.02S
SPRINGFIELD    CLOUDY    56  55  97 NE7       30.01S FOG
TAYLORVILLE    CLOUDY    54  54  99 NE8       30.00S FOG
$$

ILZ033-039-045-046-055>057-062-063-240600-
EAST-CENTRAL ILLINOIS

CITY           SKY/WX    TMP DP  RH WIND       PRES   REMARKS
CHAMPAIGN      RAIN      54  54 100 NE12      30.01F FOG
DANVILLE*      CLOUDY    53  53 100 E8        30.00S
RANTOUL*       LGT RAIN  56  55  99 E9        30.02F
MATTOON        LGT RAIN  54  54 100 NE8       29.98F FOG
PARIS*         CLOUDY    53  52  95 E8        30.01S
$$

ILZ079-100>102-240600-
SOUTHWEST ILLINOIS

CITY           SKY/WX    TMP DP  RH WIND       PRES   REMARKS
CAHOKIA*       CLOUDY    56  54  93 N6        29.97F
SPARTA*        CLOUDY    56  56 100 N5        29.97S
$$

ILZ064>066-069>071-074>076-080>082-084>086-088>090-092>094-240600-
SOUTH-CENTRAL ILLINOIS

CITY           SKY/WX    TMP DP  RH WIND       PRES   REMARKS
CARBONDALE     MOCLDY    56  55  97 N6        29.93F
CAIRO*         CLOUDY    56  54  95 N3        29.92S
EFFINGHAM*     DRIZZLE   55  55 100 N3        29.98F
MARION         FAIR      54  53  98 N3        29.94S FOG
MT. VERNON     CLOUDY    56  55  97 NE7       29.95F
CENTRALIA*     CLOUDY    57  56  95 N5        29.95S
SALEM*         CLOUDY    57  55  92 NE6       29.96S
METROPOLIS*    MOCLDY    53  53  99 N3        29.93S FOG
$$

ILZ067-068-072-073-078-083-087-091-240600-
SOUTHEAST ILLINOIS

CITY           SKY/WX    TMP DP  RH WIND       PRES   REMARKS
LAWRENCEVILLE  MOCLDY    56  53  90 MISG      29.97F
FLORA*         CLOUDY    57  56  94 NE7       29.97S
FAIRFIELD*     MOCLDY    55  55  99 N3        29.94S
HARRISBURG*    MOCLDY    55  55 100 NE5       29.94S
ROBINSON*      MOCLDY    54  52  93 E7        29.98F
CARMI*         FAIR      52  52 100 N5        29.94S
$$

ABBREVIATIONS USED IN REMARKS
   TC - TEMPERATURE IN CELSIUS
  WCI - WIND CHILL INDEX
   HX - HEAT INDEX
  VSB - VISIBILITY
$$





USA.gov is the U.S. government's official web portal to all federal, state and local government web resources and services.